Temperature
13 13 13 13 13 13 13 13 13 13 13 13 13 13 13 13 13 13 13 13 13 13 14 14 14 14 14 14 14 13 13 13 13 13 13 13 13 13 13 13 12 12 12
12 12 12 12 12 12 12 12 12 12 12 12 12 13 13 13 13 13 13 13 13 13 13 13 13 13 13 13 13 13 13 13 13 13 13 13 13 13 13 13 12 12 12
12 12 12 12 12 12 12 12 12 12 12 12 12 12 12 12 12 13 13 13 13 13 13 13 13 13 13 13 13 13 13 13 13 13 13 13 13 13 13 12 12 12 12
11 11 11 11 11 11 11 11 11 11 11 11 12 12 12 12 12 12 12 12 12 12 12 12 12 13 13 12 12 12 12 12 12 12 12 12 12 12 12 12 12 12 12
10 11 11 11 11 11 11 11 11 11 11 11 11 12 12 12 12 12 12 12 12 12 12 12 12 12 12 12 12 12 12 12 12 12 12 12 12 12 12 12 12 12 12
10 10 10 10 10 10 10 10 10 10 10 11 11 11 11 11 11 11 11 11 11 11 11 11 11 11 11 11 12 12 12 12 12 12 12 12 12 12 12 12 12 12 12
10 10 10 10 10 10 10 10 10 10 10 10 10 11 11 11 11 11 11 11 11 11 11 11 11 11 11 11 11 11 11 11 11 11 11 11 11 11 11 11 12 12 12
9 9 9 9 9 9 9 10 10 10 9 9 9 9 10 10 11 10 10 10 10 10 10 10 10 10 10 10 10 11 11 11 11 11 11 11 11 11 11 11 11 11 11
9 9 9 9 9 9 9 9 9 9 9 9 8 8 8 8 9 10 10 10 9 10 9 9 9 9 9 9 10 10 10 10 10 10 10 10 10 11 11 11 11 11 11
8 9 9 9 9 9 9 8 8 8 8 8 8 8 7 7 7 8 9 9 9 9 9 8 9 9 9 8 8 9 9 9 9 9 10 10 10 10 10 10 10 10 11
8 8 8 8 8 8 8 8 8 8 8 7 7 7 7 7 7 7 7 8 8 8 8 8 7 8 8 8 8 8 8 8 8 9 9 9 9 9 9 10 10 10 10
8 8 7 7 7 8 8 8 7 7 7 7 7 7 6 6 6 6 6 6 7 7 7 7 7 7 7 7 7 7 7 7 8 8 8 8 8 8 9 9 9 9 9
7 7 7 7 7 7 7 7 7 7 7 7 6 6 6 6 6 5 5 5 6 6 6 6 6 6 6 6 6 6 7 7 7 7 7 7 7 8 8 8 8 8 9
7 7 7 7 7 7 6 6 6 6 6 6 6 6 6 5 5 5 5 4 4 5 5 5 5 5 5 5 5 6 6 6 6 6 6 6 7 7 7 7 7 7 8
6 6 6 6 6 6 6 6 6 6 6 5 5 5 5 5 5 5 4 4 4 3 3 4 4 4 4 4 4 5 5 5 5 5 5 5 6 6 6 6 6 7 7
6 6 6 6 6 6 6 5 5 5 5 5 5 5 5 4 4 4 4 4 3 3 2 3 3 3 3 3 4 4 4 4 4 4 4 4 5 5 5 5 5 6 6
6 6 5 5 5 5 5 5 5 5 4 4 4 4 4 4 4 4 3 3 3 2 2 2 2 2 2 3 3 3 3 3 3 3 4 4 4 4 4 4 4 5 5
5 5 5 5 5 5 5 5 4 4 4 4 3 3 3 3 3 3 3 2 2 2 1 2 2 2 2 2 2 2 2 2 2 2 2 2 3 3 3 3 3 4 4
5 5 5 5 4 4 4 4 4 4 3 3 3 3 3 2 2 2 2 2 2 1 1 1 1 1 1 1 1 1 1 1 1 1 1 2 2 2 2 2 2 2 3
5 4 4 4 4 4 4 4 3 3 3 3 2 2 2 2 2 1 1 1 1 0 0 -0 -0 -0 -0 -0 -0 -0 0 0 1 1 1 1 1 1 1 1 1 1 1
4 4 4 4 4 3 3 3 3 3 2 2 2 2 1 1 1 0 0 0 -0 -1 -1 -1 -1 -1 -1 -1 -2 -2 -2 -1 -0 -1 -0 -0 -0 0 0 0 0 0 0
4 4 3 3 3 3 3 2 2 2 2 2 1 1 1 0 0 -0 -0 -1 -1 -2 -2 -2 -2 -2 -2 -3 -3 -3 -3 -3 -2 -2 -2 -1 -1 -1 -1 -1 -1 -1 -1
4 3 3 3 3 3 2 2 2 1 1 1 1 0 0 -0 -1 -1 -1 -1 -2 -2 -3 -3 -3 -3 -3 -4 -4 -4 -4 -4 -4 -4 -3 -2 -2 -2 -2 -2 -2 -2 -2
3 3 3 2 2 2 2 2 1 1 1 1 0 -0 -1 -1 -1 -2 -2 -2 -2 -2 -3 -3 -4 -4 -4 -4 -5 -5 -5 -4 -4 -4 -4 -4 -3 -3 -2 -2 -2 -2 -2
3 3 2 2 2 2 1 1 1 1 0 0 -0 -1 -1 -1 -2 -2 -3 -3 -3 -3 -3 -4 -4 -4 -4 -5 -5 -5 -5 -5 -5 -4 -5 -5 -5 -4 -3 -2 -2 -3 -3
3 2 2 2 2 1 1 1 0 -0 -0 -1 -1 -1 -2 -2 -2 -3 -3 -3 -3 -3 -4 -4 -4 -4 -5 -5 -5 -6 -6 -6 -6 -6 -6 -6 -6 -6 -5 -3 -3 -3 -3
Wind_Speed
3 3 3 4 5 6 5 4 4 5 5 5 6 5 5 5 6 7 7 10 12 14 15 16 17 17 17 17 17 17 17 16 17 16 16 15 15 15 15 15 14 13 13
5 4 3 3 4 6 6 5 5 4 4 4 5 5 6 6 6 7 7 8 11 13 15 16 16 17 17 17 17 17 17 17 17 17 17 17 17 17 17 16 16 15 15
7 5 3 3 5 7 7 6 6 5 5 5 5 5 5 5 6 6 6 6 8 10 11 12 13 13 14 15 15 16 16 16 16 16 16 16 16 17 18 18 18 17 17
9 7 3 3 7 7 5 4 4 4 5 5 5 5 5 4 5 5 5 5 4 4 6 8 10 11 11 11 11 12 12 11 12 14 14 15 15 16 17 18 19 19 19
9 7 4 5 7 5 3 5 5 4 4 5 6 5 5 4 4 4 3 3 2 2 2 5 7 7 8 9 10 9 9 9 10 11 12 14 14 15 15 17 18 20 20
9 8 5 6 6 4 4 5 6 5 4 5 6 6 5 4 3 2 2 2 2 3 3 3 3 4 4 4 5 6 7 8 9 9 10 11 13 15 16 17 17 18 20
9 8 5 5 5 4 5 6 5 6 4 4 4 5 4 3 2 2 2 2 3 3 3 3 3 2 2 2 4 5 7 8 8 8 8 10 11 12 14 16 17 17 18
8 7 6 4 5 4 5 5 5 4 3 4 2 3 4 4 3 2 1 2 3 3 3 3 3 3 3 4 6 8 7 8 8 8 8 8 10 12 13 15 16 16 16
7 7 7 5 5 4 4 5 5 4 4 3 2 1 2 3 3 3 2 2 4 4 4 4 5 6 6 6 6 8 9 9 9 9 8 8 9 10 10 11 12 13 14
5 6 6 6 4 4 4 5 5 4 3 3 3 2 2 2 2 3 3 3 5 4 4 4 5 6 7 7 9 11 11 10 10 10 10 10 10 10 11 12 13 12 12
4 5 6 5 4 3 4 5 5 5 3 3 3 3 3 3 2 2 4 4 4 4 4 4 4 6 9 10 10 13 12 11 11 11 11 11 11 12 12 12 12 12 12
2 4 5 4 4 4 4 4 4 5 4 4 3 3 2 2 2 2 3 4 4 3 4 3 5 6 9 11 12 14 13 12 12 12 12 12 13 13 12 12 13 12 12
1 3 3 3 3 4 4 4 4 4 4 4 4 3 3 3 2 2 3 3 3 2 2 3 4 7 9 10 12 14 12 12 12 12 12 12 13 13 14 13 13 13 12
1 2 2 3 4 4 4 4 3 3 4 4 4 3 2 3 3 3 2 2 3 2 1 2 3 6 8 9 12 15 12 12 12 12 12 12 13 13 13 13 13 13 13
0 1 2 2 3 3 3 3 3 3 3 3 3 4 3 2 3 3 3 2 2 2 2 2 3 5 8 8 11 12 12 14 13 13 13 13 13 13 14 13 14 14 14
0 0 1 1 2 2 3 2 2 3 3 3 2 3 3 3 3 3 3 3 2 1 2 2 3 4 6 8 11 12 12 14 13 13 13 13 14 14 14 14 14 14 14
1 1 0 1 1 2 2 2 2 2 3 3 3 3 3 3 3 3 3 3 2 2 3 3 3 4 5 6 7 10 11 11 11 14 14 14 14 14 14 14 14 14 15
2 2 1 1 1 1 1 1 1 2 2 2 2 3 3 3 3 3 2 3 2 2 1 4 3 4 4 5 6 6 8 10 11 13 15 15 14 14 14 14 14 15 15
3 2 2 2 1 1 1 1 0 0 1 1 1 2 2 3 3 2 3 3 2 3 2 2 4 3 3 5 6 6 6 6 10 12 13 14 15 16 15 15 15 15 15
4 3 3 3 2 2 1 1 1 1 1 1 0 1 1 1 2 3 3 3 3 3 2 3 3 4 4 4 4 6 7 5 7 9 10 12 15 16 16 16 16 15 15
4 4 3 3 3 2 2 2 1 2 1 1 1 1 1 0 1 2 2 2 3 2 3 3 3 4 4 5 5 5 7 7 6 4 6 8 9 9 11 14 14 15 16
4 4 4 4 4 3 4 5 3 2 2 2 2 2 2 2 3 4 5 4 4 3 3 3 3 4 5 5 4 5 6 7 5 4 7 9 7 7 7 10 14 17 17
5 5 5 5 5 5 6 6 6 3 3 3 3 3 3 2 3 2 4 5 5 6 6 4 4 5 5 5 5 5 5 6 7 6 7 7 5 7 7 12 17 17 17
5 5 5 5 5 6 8 8 7 4 4 4 4 4 3 3 3 3 3 3 4 4 5 4 4 5 5 4 4 5 7 7 6 5 4 5 5 6 8 9 15 16 17
5 5 5 5 5 6 8 9 8 3 4 5 5 4 4 4 6 7 4 4 4 4 6 8 8 9 10 10 8 4 4 6 7 5 3 3 5 6 7 6 9 14 16
5 5 5 5 6 6 8 9 8 4 4 4 4 5 7 6 7 7 4 4 5 5 4 5 6 8 7 8 9 4 3 4 5 5 2 3 4 5 6 4 4 8 12
Wind_Direction
340 340 338 336 330 322 318 309 297 294 291 290 288 286 281 272 266 266 257 238 231 232 237 242 244 245 245 246 245 244 243 242 239 238 236 236 235 237 238 239 240 242 241
350 340 335 339 333 323 320 315 309 307 298 295 291 289 290 288 276 270 264 249 242 239 238 242 246 250 249 250 249 248 247 245 243 241 240 239 239 238 240 241 240 241 242
352 345 335 334 332 326 326 324 317 318 313 309 303 296 287 283 281 277 270 260 250 245 243 244 247 251 253 254 255 253 253 250 246 244 243 243 243 242 242 243 242 241 241
358 353 343 332 336 335 337 321 324 321 316 315 311 304 298 293 287 282 277 270 263 253 244 244 247 250 254 257 260 261 259 255 253 251 248 247 247 248 246 245 244 243 242
4 354 346 346 343 341 332 330 329 322 319 321 310 297 292 288 290 293 294 291 287 286 268 254 254 252 256 259 259 264 270 269 266 262 257 252 251 251 252 251 249 246 243
8 357 355 351 350 342 337 338 331 327 317 316 310 303 290 281 289 287 299 318 335 332 317 299 275 261 267 280 283 286 286 280 275 270 268 267 263 259 257 256 255 252 248
10 5 2 352 353 345 343 341 338 328 322 331 321 312 298 282 302 311 345 352 340 336 338 349 353 340 305 313 332 331 318 302 293 285 281 275 273 272 265 260 257 256 254
14 7 3 352 351 348 350 349 350 340 325 342 330 319 318 318 332 320 354 8 353 345 349 7 17 24 33 45 29 22 3 338 321 310 302 298 291 283 280 272 264 260 258
19 12 3 0 356 359 352 347 353 347 330 320 343 336 323 312 324 320 339 11 7 3 3 7 38 42 44 47 35 17 9 353 342 334 326 321 315 307 300 297 287 276 265
24 13 4 2 1 359 354 347 357 340 336 332 329 337 309 302 309 314 322 1 359 3 9 8 27 39 39 40 31 19 12 1 351 344 341 335 329 323 315 305 300 294 285
24 15 4 1 1 0 357 354 353 352 354 351 343 333 325 326 328 283 297 329 343 359 5 12 34 40 40 37 29 16 11 3 357 354 353 350 347 340 334 328 320 312 305
14 14 1 3 5 359 353 350 351 354 0 0 2 7 4 350 340 319 295 311 318 330 346 25 44 42 37 31 21 14 11 6 360 355 352 352 352 346 339 336 330 323 317
357 359 1 1 360 351 353 356 359 358 5 6 9 4 7 4 344 324 308 307 308 301 336 33 43 44 34 25 13 4 1 2 358 354 353 353 354 352 349 344 340 334 328
349 1 360 1 1 358 359 359 3 0 11 9 10 6 5 4 2 354 332 318 308 304 324 8 25 35 24 18 8 5 356 356 357 355 353 352 354 354 352 350 346 343 339
271 16 355 355 355 357 356 3 13 10 14 18 13 10 11 4 3 2 354 348 316 301 308 348 16 12 7 6 3 1 355 351 355 356 357 357 356 353 349 348 348 345 342
136 319 341 351 351 353 355 11 8 8 20 15 13 18 16 6 5 10 6 1 0 303 290 343 357 350 357 354 356 354 346 346 352 355 355 354 352 348 345 344 343 343 339
193 213 267 326 346 353 350 11 14 15 23 14 12 20 12 9 7 8 10 5 359 344 287 301 333 342 349 349 348 347 342 340 341 346 347 348 348 347 347 345 344 344 340
200 197 205 240 287 329 346 9 6 10 22 17 7 8 358 5 9 2 5 1 357 351 307 298 315 335 341 341 341 340 343 342 336 339 341 344 345 346 346 345 344 342 340
201 198 196 212 227 240 271 290 282 331 357 3 5 3 352 0 358 351 356 352 343 341 330 305 308 321 326 334 335 334 337 335 336 335 336 342 344 342 339 339 338 339 340
199 205 206 208 210 215 226 244 245 255 272 284 321 330 346 8 356 343 343 340 339 336 331 322 314 320 319 323 340 338 335 336 331 328 334 336 336 335 333 333 333 333 334
204 204 207 214 209 209 221 218 236 246 256 263 252 240 233 236 301 308 319 327 335 326 321 319 316 320 325 338 340 334 327 325 318 326 335 328 326 323 324 325 326 328 330
206 203 210 214 214 219 222 227 233 244 249 261 267 263 251 257 273 295 302 305 303 299 299 299 301 305 311 318 321 325 325 329 320 330 330 314 315 313 315 314 319 324 327
207 208 212 212 215 217 227 235 240 241 241 250 255 260 267 264 281 272 290 297 297 295 289 281 283 287 297 309 316 316 315 307 295 304 315 300 303 305 308 312 316 318 322
210 212 215 215 217 221 227 235 240 240 236 243 244 242 247 250 261 269 270 281 280 279 281 280 268 273 283 287 287 293 294 297 287 293 308 293 303 300 307 305 309 316 320
215 216 214 213 219 229 231 236 237 233 237 244 241 236 240 243 265 275 274 270 278 280 286 284 284 286 293 300 304 303 307 311 307 305 306 295 303 311 303 294 305 317 322
216 213 217 215 218 227 234 236 234 227 238 245 245 237 243 250 263 271 267 268 277 282 291 297 295 294 294 296 301 295 288 298 300 298 313 324 310 327 313 291 296 312 313
Height
1523 1523 1522 1522 1521 1521 1521 1520 1520 1519 1519 1519 1519 1519 1519 1519 1519 1519 1520 1520 1520 1520 1520 1520 1520 1521 1521 1522 1522 1523 1523 1524 1525 1525 1526 1526 1527 1528 1528 1529 1529 1529 1530
1521 1521 1520 1520 1519 1519 1518 1518 1517 1516 1516 1516 1516 1516 1516 1516 1516 1516 1516 1515 1515 1516 1516 1516 1516 1516 1517 1517 1518 1519 1519 1520 1520 1521 1522 1522 1523 1524 1525 1525 1526 1526 1527
1519 1519 1518 1518 1517 1516 1516 1515 1514 1514 1513 1512 1512 1512 1512 1512 1512 1512 1512 1511 1511 1511 1511 1511 1511 1512 1512 1512 1513 1514 1514 1515 1516 1517 1517 1518 1519 1520 1520 1521 1522 1522 1523
1518 1517 1516 1516 1515 1514 1513 1512 1511 1510 1510 1509 1508 1508 1508 1508 1508 1508 1508 1507 1507 1507 1506 1506 1507 1507 1508 1508 1508 1508 1509 1510 1511 1512 1512 1513 1514 1515 1516 1516 1517 1518 1518
1516 1515 1514 1513 1512 1512 1511 1510 1509 1508 1507 1506 1505 1505 1505 1504 1504 1504 1504 1504 1503 1503 1503 1502 1502 1503 1503 1503 1503 1503 1504 1505 1506 1507 1507 1508 1509 1510 1510 1511 1512 1512 1513
1514 1513 1512 1512 1511 1510 1509 1508 1507 1506 1504 1503 1502 1502 1501 1501 1500 1500 1500 1500 1499 1499 1499 1499 1498 1498 1499 1499 1499 1498 1499 1499 1500 1501 1502 1503 1504 1504 1505 1505 1506 1507 1508
1513 1512 1511 1510 1509 1508 1506 1505 1504 1503 1502 1501 1500 1498 1498 1497 1497 1497 1497 1496 1496 1496 1496 1495 1495 1495 1494 1494 1494 1494 1494 1495 1495 1496 1496 1497 1498 1499 1499 1500 1500 1500 1501
1511 1510 1509 1508 1507 1506 1505 1503 1502 1501 1500 1499 1498 1496 1495 1495 1494 1494 1494 1493 1493 1493 1492 1492 1491 1491 1490 1490 1489 1489 1490 1490 1491 1491 1491 1492 1493 1493 1493 1493 1494 1494 1495
1509 1509 1508 1506 1505 1504 1503 1502 1500 1499 1498 1498 1497 1497 1496 1494 1492 1492 1492 1491 1491 1490 1488 1488 1488 1487 1487 1486 1486 1486 1486 1486 1486 1486 1486 1487 1487 1487 1487 1487 1488 1488 1489
1508 1507 1506 1505 1503 1502 1501 1500 1499 1497 1497 1496 1495 1495 1495 1494 1493 1490 1489 1489 1488 1487 1486 1485 1485 1484 1483 1483 1482 1482 1481 1481 1481 1481 1481 1481 1481 1481 1481 1481 1481 1481 1482
1506 1505 1504 1503 1502 1501 1499 1498 1497 1496 1495 1494 1493 1493 1492 1492 1491 1490 1487 1485 1485 1484 1484 1483 1482 1481 1480 1479 1478 1478 1477 1477 1477 1476 1476 1476 1475 1475 1475 1475 1475 1475 1475
1504 1503 1502 1501 1500 1499 1497 1496 1495 1494 1493 1492 1491 1490 1490 1489 1488 1487 1485 1483 1482 1481 1481 1480 1479 1478 1477 1476 1475 1474 1473 1472 1472 1471 1470 1470 1470 1469 1469 1469 1469 1469 1469
1501 1501 1500 1499 1498 1497 1495 1494 1493 1492 1491 1490 1489 1488 1487 1487 1486 1485 1484 1482 1480 1479 1478 1477 1476 1475 1474 1473 1471 1470 1469 1468 1467 1467 1466 1465 1464 1464 1463 1463 1463 1462 1462
1499 1499 1498 1497 1496 1494 1493 1492 1491 1490 1489 1488 1487 1486 1485 1484 1484 1482 1482 1480 1478 1477 1476 1475 1474 1473 1471 1470 1468 1466 1465 1464 1463 1462 1461 1460 1459 1458 1457 1457 1456 1456 1455
1497 1496 1495 1494 1493 1492 1491 1490 1489 1488 1487 1486 1485 1484 1483 1482 1481 1480 1479 1478 1478 1475 1473 1473 1472 1470 1468 1467 1465 1463 1461 1460 1459 1458 1456 1455 1454 1453 1452 1451 1450 1450 1449
1494 1493 1492 1492 1491 1490 1489 1487 1486 1485 1484 1483 1482 1481 1480 1479 1478 1477 1476 1476 1475 1474 1472 1470 1469 1467 1465 1464 1462 1460 1458 1457 1455 1453 1451 1450 1449 1448 1447 1446 1445 1444 1443
1491 1490 1490 1489 1488 1487 1486 1485 1484 1483 1482 1481 1480 1479 1478 1477 1476 1475 1474 1473 1472 1471 1469 1467 1466 1464 1462 1460 1458 1457 1455 1453 1451 1449 1447 1446 1445 1443 1442 1440 1439 1438 1437
1488 1487 1487 1486 1485 1484 1483 1482 1481 1480 1479 1478 1477 1476 1475 1474 1473 1472 1471 1469 1468 1467 1466 1463 1462 1460 1459 1457 1455 1453 1451 1449 1447 1445 1443 1442 1440 1438 1437 1435 1434 1432 1431
1484 1484 1483 1483 1482 1481 1480 1479 1478 1477 1476 1475 1474 1473 1472 1471 1470 1469 1468 1466 1465 1464 1462 1461 1458 1457 1455 1453 1451 1449 1448 1446 1444 1442 1440 1438 1436 1434 1432 1431 1429 1427 1426
1480 1480 1479 1479 1478 1477 1477 1476 1475 1474 1473 1472 1471 1470 1469 1468 1467 1466 1465 1463 1462 1461 1459 1457 1455 1453 1451 1450 1448 1445 1443 1442 1440 1438 1436 1434 1432 1430 1428 1426 1424 1422 1420
1476 1476 1475 1475 1474 1474 1473 1472 1472 1470 1470 1469 1468 1467 1466 1465 1464 1463 1461 1460 1459 1457 1456 1454 1452 1450 1448 1446 1444 1442 1440 1437 1435 1433 1431 1430 1428 1425 1423 1421 1419 1417 1415
1472 1472 1471 1471 1470 1470 1469 1469 1468 1467 1466 1465 1464 1463 1462 1461 1460 1459 1458 1457 1456 1454 1452 1451 1449 1447 1445 1444 1442 1440 1437 1434 1430 1430 1427 1425 1424 1421 1419 1417 1415 1412 1410
1467 1467 1467 1467 1466 1466 1466 1465 1464 1463 1462 1461 1460 1459 1458 1458 1457 1455 1454 1453 1452 1451 1450 1448 1446 1444 1443 1441 1439 1437 1435 1432 1429 1427 1424 1420 1419 1417 1415 1412 1410 1408 1406
1463 1462 1462 1462 1462 1462 1461 1461 1460 1459 1458 1457 1456 1455 1454 1453 1452 1451 1450 1449 1448 1447 1446 1444 1443 1441 1440 1438 1437 1435 1432 1429 1426 1424 1422 1417 1414 1412 1410 1408 1406 1404 1401
1458 1458 1458 1457 1457 1457 1457 1456 1455 1454 1453 1452 1451 1451 1450 1449 1448 1447 1446 1445 1444 1443 1442 1440 1439 1438 1436 1435 1433 1431 1428 1426 1422 1419 1418 1415 1410 1406 1403 1401 1400 1398 1396
1453 1453 1453 1453 1452 1452 1452 1451 1450 1449 1448 1447 1446 1446 1445 1444 1444 1443 1442 1440 1439 1438 1437 1436 1435 1433 1432 1430 1429 1427 1425 1422 1419 1416 1413 1411 1407 1404 1398 1395 1394 1393 1390